Terug naar catalogus

HULIANWANG DIGUI-61

ActiefCommunicatiePO
NORAD 65167·PAYLOAD·🇨🇳 China

Gelanceerd Aug 13, 2025 vanaf Wenchang Space Launch Site

Loading…

Volgende Passages (komende 24 uur)

TLE

VersSource: Space-Track

Epoch: Sep 14, 2026, 21:21 UTC

1 65167U 25174D   26257.88977383  .00000009  00000-0 -12166-4 0  9999
2 65167  86.4980 221.7472 0002365  82.2398 277.9004 13.24399747 52662

Volg HULIANWANG DIGUI-61 in realtime met AllMySat

Download on the App Store